Regional Weather Roundup
Issued by NWS Bismarck, ND

Home | Current Version | Previous Version | Text Only | Print | Product List | Glossary On
Versions: 1 2 3 4 5 6 7 8 9 10 11 12 13 14 15 16 17 18 19 20 21 22 23 24 25 26 27 28 29 30 31 32 33 34 35 36 37 38 39 40 41 42 43 44 45 46 47 48 49 50
000
ASUS43 KBIS 211410
RWRBIS

NWR BROADCAST TEXT
NATIONAL WEATHER SERVICE BISMARCK ND
900 AM CDT THU AUG 21 2014

NOTE: "FAIR" INDICATES FEW OR NO CLOUDS BELOW 12,000 FEET WITH NO
SIGNIFICANT WEATHER AND/OR OBSTRUCTIONS TO VISIBILITY.


CITY           SKY/WX    TMP DP  RH WIND       PRES   REMARKS
WILLISTON      SUNNY     61  59  93 CALM      29.90R
MINOT          CLOUDY    64  62  93 NW8       29.83R FOG
MINOT AFB      CLOUDY    64  64 100 NW7       29.83R FOG
BISMARCK       CLOUDY    67  64  90 NW9       29.83R
DICKINSON      SUNNY     62  60  93 NW8       29.89R
GARRISON         N/A     67  65  93 NW7       29.83R
HETTINGER ARPT MOSUNNY   64  59  83 NW7       29.92R
JAMESTOWN      CLOUDY    70  67  90 S5        29.76R
BEACH            N/A     61  61 100 N7        29.94S FOG
CARRINGTON     PTSUNNY   68  68 100 SE6       29.79R
CROSBY         FOG       59  59 100 N10       29.91R VSB 1/4
HARVEY         CLOUDY    66  66 100 W8        29.79S
HAZEN          CLOUDY    64  63  94 N6        29.86R
LINTON         CLOUDY    66  66 100 NW10      29.82R FOG
MANDAN         CLOUDY    64  64 100 N13       29.84S
RUGBY          PTSUNNY   64  64 100 N8        29.80R
STANLEY        PTSUNNY   63  63 100 N8        29.88R FOG
TIOGA          FOG       61  61 100 NW10      29.92R VSB 1/4
WATFORD CITY   FAIR      63  63 100 NW6       29.88R
$$

CITY           SKY/WX    TMP DP  RH WIND       PRES   REMARKS
GRAND FORKS    CLOUDY    70  66  87 E7        29.76F
GRAND FORKS AF CLOUDY    69  69  98 E7        29.77F
DEVILS LAKE    CLOUDY    70  63  78 NE6       29.77R
FARGO          CLOUDY    73  67  81 SE5       29.75R
CANDO          CLOUDY    68  66  94 SE3       29.79R
CAVALIER       CLOUDY    68  64  88 E6        29.78F
GRAFTON        PTSUNNY   68  66  94 E7        29.78S
GWINNER        MOSUNNY   73  73 100 S10       29.76R
LANGDON        CLOUDY    66  64  94 E7        29.80R FOG
ROLLA          CLOUDY    64  64 100 N6        29.83R FOG
WALHALLA         N/A     68  68 100 SE6       29.78R
$$

CITY           SKY/WX    TMP DP  RH WIND       PRES   REMARKS
ABERDEEN       SUNNY     67  65  93 SW7       29.77S
MOBRIDGE       MOSUNNY   68  66  93 NW10      29.81R
BUFFALO          N/A     64  56  75 NW16      29.88R
RAPID CITY     PTSUNNY   68  61  78 CALM      29.95R
GLASGOW        PTSUNNY   62  60  93 CALM      29.94S THUNDER
SIDNEY         MOSUNNY   63  61  94 CALM      29.93R
WOLF POINT     CLOUDY    64  58  80 CALM      29.93R
GLENDIVE       PTSUNNY   63  57  82 NW6       29.96R
MILES CITY     CLOUDY    64  55  72 CALM      29.95R
BAKER          MOSUNNY   61  57  87 W10       29.96R
$$

CITY           SKY/WX    TMP DP  RH WIND       PRES   REMARKS
BILLINGS       PTSUNNY   61  55  81 NW6       30.03R
GREAT FALLS    CLOUDY    54  53  97 NW10      30.07R
REGINA         PTSUNNY   59  55  88 N12       29.94R
ESTEVAN        CLOUDY   N/A N/A N/A NW5         N/A  FOG
$$




USA.gov is the U.S. government's official web portal to all federal, state and local government web resources and services.